Powrót do katalogu

STARLINK-37798

AktywnyŁącznośćSSO
NORAD 69497·PAYLOAD·🇺🇸 United States

Wystrzelony Jun 11, 2026 z Vandenberg Space Force Base

Loading…

Następne Przeloty (najbliższe 24 godziny)

TLE

ŚwieżeSource: CelesTrak SupGP

Epoka: Sep 14, 2026, 23:27 UTC

1 69497C 26131V   26257.97756944  .00047996  00000+0  14900-2 0  2578
2 69497  97.2836 278.9728 0001284  93.4055 297.9130 15.33413897    12

Śledź STARLINK-37798 w czasie rzeczywistym z AllMySat

Download on the App Store